Location: Peebles
(55.6412°N, 3.1714°W)
Time: 18:34:07
(UTC+01:00)

Envisat - Pass Details

Date: 27 February 2024
Orbit: 762 x 764 km, 98.3° (Epoch: 20 April)

Event Time Altitude Azimuth Distance (km) Brightness Sun altitude
Rises 05:30:04 0° 11° (N) 3,247 6.5 -14.8°
Reaches altitude 10° 05:32:45 10° 358° (N) 2,316 5.5 -14.5°
Maximum altitude 05:36:46 24° 306° (NW) 1,547 4.2 -13.9°
Enters shadow 05:38:36 20° 275° (W) 1,733 4.2 -13.6°
